Joliet, IL

8:33 PM CDT on October 23, 2017 (GMT -0500)
Joliet Regional

Weather History for KJOT - February, 2013

Change the Weather History Date:

Wednesday, February 13, 2013

  Actual Average (KARR) Record (KARR)
Temperature  
Mean Temperature 30 °F -  
Max Temperature 43 °F 33 °F 44 °F (2005)
Min Temperature 18 °F 18 °F -4 °F (2015)
Degree Days  
Heating Degree Days 34    
Moisture  
Dew Point 26 °F    
Average Humidity 84    
Maximum Humidity 98    
Minimum Humidity 58    
Precipitation  
Precipitation 0.00 in - - ()
Sea Level Pressure  
Sea Level Pressure 29.79 in    
Wind  
Wind Speed 3 mph (West)    
Max Wind Speed 7 mph    
Max Gust Speed -    
Visibility 7 miles    
Events      
Averages and records for this station are not official NWS values.
T = Trace of Precipitation, MM = Missing Value Source: NWS Daily Summary

Daily Weather History Graph

Daily Weather History Graph

Search for Another Location

Airport or City:

Trip Planner

Search our weather history database for the weather conditions in past years. The results will help you decide how hot, cold, wet, or windy it might be!

Date:

Astronomy

Feb. 13, 2013 Rise Set
Actual Time 6:50 AM CST 5:24 PM CST
Civil Twilight 6:21 AM CST 5:52 PM CST
Nautical Twilight 5:49 AM CST 6:25 PM CST
Astronomical Twilight 5:17 AM CST 6:57 PM CST
Moon 8:15 AM CST (2/13) 9:30 PM CST (2/13)
Length of Visible Light 11h 31m
Length of Day
10h 34m
Waxing Crescent, 14% of the Moon is Illuminated
Feb 13
Waxing Crescent
Feb 17
First Quarter
Feb 25
Full
Mar 4
Last Quarter
Mar 11
New

Hourly Weather History & Observations

Time (CST) Temp. Windchill Dew Point Humidity Pressure Visibility Wind Dir Wind Speed Gust Speed Precip Events Conditions
12:15 AM 18.3 °F - 17.1 °F 95% 29.91 in 5.0 mi North - - N/A   Clear
12:35 AM 18.7 °F - 17.6 °F 96% 29.91 in 4.0 mi North - - N/A   Clear
12:55 AM 20.8 °F - 19.6 °F 95% 29.90 in 5.0 mi North - - N/A   Clear
1:15 AM 20.1 °F - 18.7 °F 94% 29.90 in 4.0 mi North - - N/A   Clear
1:35 AM 19.8 °F - 18.5 °F 95% 29.89 in 4.0 mi North - - N/A   Clear
1:55 AM 19.6 °F - 18.5 °F 96% 29.89 in 3.0 mi North - - N/A   Clear
2:15 AM 19.2 °F - 18.1 °F 96% 29.88 in 4.0 mi North - - N/A   Clear
2:35 AM 20.3 °F - 19.4 °F 96% 29.88 in 3.0 mi North - - N/A   Clear
2:55 AM 19.2 °F - 18.1 °F 96% 29.87 in 4.0 mi North - - N/A   Clear
3:15 AM 20.3 °F - 19.2 °F 96% 29.86 in 3.0 mi North - - N/A   Clear
3:35 AM 19.6 °F - 18.1 °F 94% 29.85 in 3.0 mi North - - N/A   Clear
3:55 AM 19.4 °F - 18.5 °F 96% 29.85 in 3.0 mi North - - N/A   Clear
4:15 AM 20.1 °F - 19.2 °F 96% 29.84 in 2.5 mi North - - N/A   Clear
4:35 AM 21.6 °F - 20.7 °F 96% 29.83 in 2.5 mi North - - N/A   Clear
4:55 AM 20.3 °F - 19.8 °F 98% 29.82 in 1.8 mi North - - N/A   Mist
5:15 AM 19.8 °F - 18.9 °F 96% 29.82 in 1.8 mi North - - N/A   Mist
5:35 AM 18.9 °F - 18.0 °F 96% 29.81 in 2.5 mi North - - N/A   Clear
5:55 AM 19.4 °F - 18.5 °F 96% 29.80 in 2.0 mi North - - N/A   Clear
6:15 AM 19.4 °F - 18.3 °F 96% 29.80 in 2.0 mi North - - N/A   Clear
6:35 AM 19.2 °F - 18.3 °F 96% 29.79 in 2.0 mi North - - N/A   Clear
6:55 AM 19.0 °F - 18.1 °F 96% 29.80 in 2.0 mi North - - N/A   Clear
7:15 AM 19.6 °F - 18.7 °F 96% 29.80 in 2.5 mi North - - N/A   Clear
7:35 AM 22.1 °F - 21.2 °F 96% 29.80 in 2.5 mi North - - N/A   Clear
7:55 AM 26.2 °F - 25.5 °F 97% 29.80 in 3.0 mi North - - N/A   Clear
8:15 AM 28.4 °F - 27.0 °F 94% 29.80 in 3.0 mi North - - N/A   Clear
8:35 AM 30.2 °F - 27.7 °F 90% 29.80 in 4.0 mi North - - N/A   Clear
8:55 AM 31.3 °F - 28.2 °F 88% 29.79 in 5.0 mi North - - N/A   Clear
9:15 AM 32.4 °F - 28.6 °F 86% 29.79 in 5.0 mi North - - N/A   Clear
9:35 AM 33.8 °F - 28.6 °F 81% 29.80 in 7.0 mi North - - N/A   Clear
9:55 AM 34.7 °F - 28.6 °F 78% 29.79 in 7.0 mi North - - N/A   Clear
10:15 AM 35.6 °F - 29.1 °F 77% 29.79 in 7.0 mi North - - N/A   Clear
10:35 AM 36.5 °F - 28.8 °F 74% 29.80 in 7.0 mi North - - N/A   Clear
10:55 AM 37.6 °F - 29.1 °F 72% 29.79 in 10.0 mi North - - N/A   Clear
11:15 AM 38.8 °F - 29.8 °F 70% 29.78 in 10.0 mi North - - N/A   Clear
11:35 AM 39.9 °F - 29.3 °F 66% 29.77 in 10.0 mi North - - N/A   Clear
11:55 AM 40.3 °F - 28.9 °F 64% 29.76 in 10.0 mi North - - N/A   Clear
12:15 PM 41.7 °F - 29.8 °F 63% 29.75 in 10.0 mi North - - N/A   Clear
12:35 PM 41.7 °F - 29.7 °F 62% 29.74 in 10.0 mi North - - N/A   Clear
12:55 PM 42.8 °F - 30.2 °F 61% 29.73 in 10.0 mi North - - N/A   Clear
1:15 PM 42.4 °F - 30.6 °F 63% 29.73 in 10.0 mi North - - N/A   Clear
1:35 PM 43.0 °F - 30.7 °F 62% 29.73 in 10.0 mi North - - N/A   Clear
1:55 PM 43.2 °F - 31.1 °F 62% 29.73 in 10.0 mi North - - N/A   Clear
2:15 PM 43.9 °F - 31.6 °F 62% 29.73 in 10.0 mi North - - N/A   Clear
2:35 PM 43.7 °F - 31.1 °F 61% 29.72 in 10.0 mi North - - N/A   Clear
2:55 PM 43.7 °F - 31.5 °F 62% 29.72 in 10.0 mi North - - N/A   Clear
3:15 PM 43.7 °F - 29.7 °F 58% 29.73 in 10.0 mi North - - N/A   Clear
3:35 PM 43.7 °F 40.3 °F 30.4 °F 59% 29.72 in 10.0 mi West 5.8 mph - N/A   Clear
3:55 PM 43.3 °F 40.7 °F 31.1 °F 62% 29.73 in 10.0 mi West 4.6 mph - N/A   Clear
4:15 PM 42.4 °F 39.6 °F 30.7 °F 63% 29.73 in 10.0 mi West 4.6 mph - N/A   Clear
4:35 PM 41.7 °F 37.3 °F 31.1 °F 66% 29.73 in 10.0 mi West 6.9 mph - N/A   Clear
4:55 PM 41.2 °F 37.3 °F 32.0 °F 70% 29.74 in 10.0 mi West 5.8 mph - N/A   Clear
5:15 PM 39.9 °F 36.7 °F 32.0 °F 73% 29.74 in 10.0 mi West 4.6 mph - N/A   Clear
5:35 PM 38.8 °F 36.5 °F 32.0 °F 76% 29.75 in 10.0 mi West 3.5 mph - N/A   Clear
5:55 PM 37.8 °F - 31.8 °F 79% 29.76 in 10.0 mi Calm Calm - N/A   Clear
6:15 PM 36.9 °F - 31.6 °F 81% 29.76 in 10.0 mi Calm Calm - N/A   Clear
6:35 PM 35.2 °F - 31.1 °F 85% 29.76 in 10.0 mi Calm Calm - N/A   Scattered Clouds
6:55 PM 31.8 °F - 28.6 °F 88% 29.77 in 10.0 mi Calm Calm - N/A   Mostly Cloudy
7:15 PM 31.6 °F - 28.6 °F 88% 29.77 in 10.0 mi Calm Calm - N/A   Overcast
7:35 PM 32.0 °F - 29.5 °F 90% 29.78 in 10.0 mi Calm Calm - N/A   Overcast
7:55 PM 32.2 °F - 30.4 °F 93% 29.77 in 10.0 mi Calm Calm - N/A   Overcast
8:15 PM 32.0 °F - 29.8 °F 92% 29.77 in 10.0 mi Calm Calm - N/A   Overcast
8:35 PM 32.0 °F - 30.2 °F 93% 29.77 in 10.0 mi Calm Calm - N/A   Overcast
8:55 PM 32.7 °F - 30.6 °F 92% 29.77 in 10.0 mi Calm Calm - N/A   Overcast
9:15 PM 33.3 °F - 31.1 °F 92% 29.77 in 10.0 mi Calm Calm - N/A   Overcast
9:35 PM 33.8 °F - 31.3 °F 90% 29.76 in 10.0 mi Calm Calm - N/A   Overcast
9:55 PM 33.8 °F - 31.1 °F 90% 29.76 in 10.0 mi Calm Calm - N/A   Overcast
10:15 PM 32.2 °F - 30.7 °F 94% 29.76 in 7.0 mi Calm Calm - N/A   Overcast
10:35 PM 32.4 °F - 30.9 °F 94% 29.76 in 10.0 mi Calm Calm - N/A   Overcast
10:55 PM 32.5 °F - 30.7 °F 93% 29.76 in 10.0 mi Calm Calm - N/A   Overcast
11:15 PM 32.5 °F - 30.7 °F 93% 29.76 in 10.0 mi Calm Calm - N/A   Overcast
11:35 PM 33.8 °F - 32.0 °F 93% 29.76 in 10.0 mi Calm Calm - N/A   Overcast
11:55 PM 34.3 °F 31.4 °F 31.1 °F 88% 29.76 in 10.0 mi South 3.5 mph - N/A   Overcast